Wind_Speed
10 10 10 10 10 10 11 11 11 11 11 12 11 12 12 12 12 12 11 11 11 11 12 12 12 12 13 13 13 13 14 14 15 15 15 15 15 15 15 14 15 15 15 15
11 10 10 10 10 10 10 10 11 11 11 11 11 12 12 12 12 12 12 11 11 11 12 13 13 13 13 13 13 13 14 14 15 15 15 15 15 16 15 15 15 15 16 16
11 10 11 11 10 10 10 10 11 12 12 12 12 12 12 12 12 12 12 12 12 12 13 13 13 13 13 13 13 13 14 14 14 14 15 15 15 16 16 16 16 16 16 17
11 11 11 11 11 11 12 12 12 13 13 13 13 13 13 13 13 12 12 12 13 13 13 13 13 13 13 13 13 13 14 13 13 14 14 15 15 16 16 16 16 16 17 17
12 11 12 12 12 12 12 12 13 13 13 14 13 14 14 13 14 13 12 13 13 13 13 13 13 13 13 13 13 14 14 14 13 13 14 14 15 15 15 16 16 16 16 17
12 12 12 12 12 13 13 13 13 13 14 14 14 15 15 15 15 15 14 14 13 13 13 13 13 13 13 13 13 13 13 14 14 14 15 15 15 15 15 16 16 17 17 17
13 13 13 12 13 13 13 13 13 13 14 15 14 15 15 16 16 15 15 14 14 13 13 13 13 13 14 14 13 14 15 15 15 15 15 16 16 16 17 17 18 18 18 18
13 13 13 13 13 13 13 13 14 14 15 15 14 15 15 15 15 15 15 15 15 14 14 14 14 14 15 14 14 15 15 15 15 16 16 16 17 17 18 18 18 19 19 19
14 14 13 13 13 13 13 14 14 15 15 15 15 15 15 15 15 15 15 15 15 15 15 14 15 15 15 15 15 15 16 16 17 17 18 18 18 18 19 19 20 20 20 20
15 15 14 14 14 14 14 14 14 15 15 15 16 16 16 16 15 15 15 15 15 15 15 16 16 15 15 15 16 16 17 17 18 18 19 19 20 20 20 20 20 21 21 21
15 15 14 14 14 14 14 15 15 16 16 16 16 16 17 17 16 15 15 15 16 16 16 16 17 16 16 16 16 17 18 19 19 19 19 20 20 20 20 21 22 22 21 21
14 14 14 14 14 15 15 15 16 16 17 17 17 17 18 18 18 17 17 17 17 17 17 17 17 17 17 18 18 19 20 20 19 20 21 21 21 21 22 22 23 23 23 23
15 16 15 16 16 16 16 16 17 17 17 18 18 19 18 18 19 19 18 18 18 18 18 18 18 18 19 19 20 21 22 22 22 21 22 22 23 23 24 25 25 25 26 26
17 17 17 17 17 16 17 17 17 18 18 18 18 19 19 19 19 19 19 19 19 19 19 19 19 20 20 21 22 22 23 23 24 24 24 25 25 26 26 27 27 27 28 28
18 18 18 18 18 18 18 18 18 18 18 18 18 19 19 20 19 19 19 19 20 20 21 21 21 21 22 23 24 24 25 26 26 27 27 27 27 28 28 28 29 29 29 29
19 19 19 19 19 18 18 18 19 19 19 18 18 18 19 20 20 20 20 20 20 21 22 22 22 23 24 25 25 26 26 27 27 28 28 29 28 29 29 29 29 29 29 29
19 19 19 19 19 20 19 19 19 20 20 19 19 19 20 20 20 20 21 21 21 21 22 22 23 24 25 26 26 26 26 27 28 28 29 29 29 28 28 29 28 28 28 28
20 19 20 19 19 20 19 19 19 19 19 20 20 20 20 20 21 21 20 21 21 21 22 23 24 25 26 26 26 27 27 27 27 28 28 28 28 28 28 28 28 27 26 26
20 20 20 19 20 19 19 19 19 19 18 19 19 20 20 20 21 20 21 21 22 22 23 23 24 25 25 26 26 26 26 27 27 27 28 27 28 27 27 26 26 26 25 24
20 21 21 20 20 19 18 19 19 19 18 19 19 20 20 21 21 21 22 22 23 23 23 24 24 24 25 25 26 26 26 26 26 26 26 26 26 26 27 25 25 24 24 23
21 22 22 21 21 20 19 19 19 19 20 20 20 20 20 21 21 22 23 23 23 23 23 24 24 24 24 25 25 25 25 25 25 25 25 25 25 25 25 25 24 24 24 24
21 21 21 22 22 21 20 20 20 20 20 21 21 21 21 21 22 22 22 23 22 22 23 23 24 24 24 25 25 25 25 24 24 24 24 24 24 24 23 24 24 25 24 24
21 21 21 22 22 22 22 22 21 21 21 21 22 22 22 22 22 22 22 23 23 22 22 22 23 24 24 24 24 24 23 23 23 23 23 23 23 23 24 24 25 25 25 24
21 21 22 22 21 22 22 22 22 22 22 22 22 22 22 23 22 22 23 24 23 23 23 22 22 22 23 24 23 23 23 22 22 22 23 23 23 24 24 23 23 24 24 24
21 21 21 21 21 21 21 21 22 22 23 22 22 22 22 22 23 23 23 24 24 23 23 22 22 22 22 23 23 22 22 22 22 23 23 23 23 23 23 23 23 23 23 24
21 21 21 21 21 21 21 21 22 23 23 23 23 23 22 22 22 22 23 24 24 23 23 22 22 22 22 22 22 23 23 23 23 23 23 23 23 23 23 23 23 24 24 24
Wind_Direction
259 261 264 266 267 265 263 259 256 253 254 250 249 251 251 250 251 253 255 257 259 260 264 264 264 263 263 265 267 268 270 271 273 275 276 276 275 276 276 275 274 272 272 274
258 261 263 264 266 264 261 259 256 254 252 250 250 251 250 249 250 252 253 255 260 263 264 265 265 265 265 267 268 269 271 271 272 273 274 274 274 275 275 276 277 275 272 273
260 263 262 264 267 266 262 260 259 257 257 254 254 252 252 250 251 254 254 256 260 265 267 268 266 266 267 266 268 270 272 272 271 271 272 273 273 274 275 275 275 275 274 275
260 262 264 266 268 269 265 262 261 261 260 259 256 253 251 252 251 254 255 256 261 265 267 267 267 267 268 266 270 274 273 271 270 271 272 273 273 274 275 275 276 276 276 277
260 262 264 266 267 268 267 264 262 261 261 260 258 255 251 251 251 253 254 257 261 264 265 266 267 265 266 267 273 276 274 273 272 274 276 276 275 275 275 275 276 277 278 280
259 262 265 266 266 267 266 264 263 260 261 261 258 257 253 250 251 253 255 258 261 263 264 264 263 262 263 267 271 275 274 275 275 277 279 279 278 277 276 276 278 279 281 282
260 264 265 265 264 264 263 264 265 265 262 261 259 257 255 253 252 254 256 257 259 262 262 261 262 262 262 266 270 272 274 275 277 279 280 281 280 280 278 279 280 280 279 280
261 265 266 266 266 264 262 261 260 263 265 264 262 260 257 253 252 253 255 256 259 262 261 260 262 263 264 266 268 270 273 276 277 280 280 280 279 280 280 280 280 279 279 279
263 266 267 268 268 265 262 261 261 264 265 267 266 262 257 254 254 255 254 256 259 261 260 259 261 262 264 267 269 272 274 277 278 278 278 280 280 279 281 281 281 281 280 281
262 266 267 268 269 268 265 262 263 266 269 270 269 266 262 256 255 257 256 255 257 259 259 262 262 262 264 266 270 274 276 279 279 278 278 279 280 280 283 283 282 281 281 282
261 264 267 268 268 269 266 264 263 266 266 268 270 267 263 261 259 258 257 256 257 259 260 261 262 263 263 266 271 274 276 278 279 280 280 282 282 283 285 287 285 283 282 281
260 264 267 267 268 267 265 264 264 266 267 268 268 267 265 263 261 260 260 259 260 260 260 261 263 264 266 268 270 272 275 277 277 278 279 281 283 284 286 287 287 285 283 283
260 262 267 267 267 267 266 265 264 265 266 266 266 268 268 265 263 261 262 262 263 262 262 262 263 265 266 268 270 275 277 278 278 279 279 281 281 284 286 287 287 286 284 283
261 262 265 268 270 272 270 266 265 264 266 266 265 266 267 265 264 264 264 265 265 264 263 264 265 266 267 268 270 275 275 277 279 279 279 280 281 282 285 287 287 287 286 284
262 264 264 266 269 269 269 266 264 262 266 267 266 265 264 262 263 263 263 264 266 265 264 265 267 268 268 269 272 274 275 277 279 279 280 280 281 282 284 285 286 286 285 285
264 266 267 267 268 269 268 268 266 265 269 270 267 265 264 262 262 261 261 262 266 266 267 267 268 269 269 271 272 273 275 275 277 278 279 280 281 282 283 286 287 287 285 284
265 268 268 267 268 270 270 269 269 268 271 269 268 267 267 264 264 262 263 264 266 269 270 270 271 270 271 271 272 273 274 275 276 277 278 280 281 282 283 285 287 287 285 284
266 267 268 268 268 269 271 269 269 270 270 268 268 266 267 267 267 266 266 267 269 270 271 272 272 272 272 272 273 276 277 278 279 278 280 281 281 281 283 285 286 287 285 284
267 267 268 269 271 271 269 270 270 272 270 269 269 268 268 268 269 267 266 268 271 272 273 275 275 275 275 275 276 278 278 279 280 280 281 282 281 282 283 283 285 286 287 286
267 267 269 270 271 272 271 269 270 271 269 268 270 269 269 269 269 269 268 271 273 273 274 276 277 277 276 277 278 278 279 279 280 281 281 281 282 282 283 283 283 285 286 286
267 268 269 269 269 270 272 271 270 269 268 269 270 270 271 271 271 272 272 272 273 273 274 276 278 279 279 279 279 279 279 280 281 281 280 280 280 281 282 284 284 285 285 285
267 268 269 271 270 270 271 271 269 268 268 269 270 271 272 273 274 274 276 276 276 275 275 277 278 279 280 280 280 280 280 280 280 281 281 281 281 281 283 285 285 284 285 285
265 268 270 270 271 271 270 269 267 266 267 269 270 271 271 274 275 275 275 275 275 276 277 278 277 278 280 281 281 280 280 279 278 277 279 280 281 281 282 282 282 283 285 285
265 268 270 270 270 270 269 267 267 266 268 269 270 273 274 272 272 274 275 275 277 278 278 279 278 279 280 281 281 280 280 280 279 279 279 281 283 283 283 282 284 285 286 286
266 267 268 269 270 270 268 267 267 268 269 270 272 274 275 274 273 274 275 276 277 278 278 279 280 280 281 280 280 280 280 281 282 281 282 283 284 287 285 286 288 289 289 289
266 266 268 269 269 268 269 269 268 269 270 272 274 274 275 276 276 276 275 276 278 277 277 278 279 279 280 281 279 279 279 280 281 283 284 285 284 286 287 287 288 289 289 290
Height
5831 5832 5832 5832 5832 5832 5832 5832 5833 5833 5833 5834 5834 5835 5835 5835 5836 5836 5836 5837 5837 5837 5837 5837 5837 5838 5838 5838 5838 5838 5838 5838 5838 5837 5837 5836 5836 5836 5835 5835 5835 5834 5834 5833
5829 5829 5830 5829 5829 5829 5829 5829 5830 5830 5830 5831 5831 5832 5832 5832 5833 5833 5833 5834 5834 5834 5834 5834 5834 5834 5835 5835 5835 5835 5835 5834 5834 5834 5833 5833 5832 5832 5832 5831 5831 5830 5830 5830
5825 5827 5826 5826 5826 5826 5826 5827 5827 5827 5827 5827 5828 5829 5829 5829 5830 5830 5830 5830 5831 5831 5831 5831 5831 5831 5831 5831 5831 5831 5831 5831 5830 5830 5829 5829 5829 5828 5828 5827 5827 5826 5826 5826
5822 5822 5822 5822 5822 5823 5823 5823 5823 5823 5824 5824 5825 5825 5826 5826 5826 5827 5827 5827 5827 5827 5827 5827 5827 5827 5828 5828 5828 5827 5827 5827 5826 5826 5825 5825 5824 5824 5824 5823 5823 5822 5822 5821
5819 5819 5819 5819 5819 5819 5819 5819 5820 5820 5820 5821 5821 5822 5823 5822 5823 5823 5824 5824 5824 5824 5824 5824 5824 5824 5824 5824 5824 5823 5823 5823 5822 5822 5821 5821 5820 5820 5820 5819 5819 5818 5818 5817
5815 5815 5815 5816 5815 5815 5816 5816 5816 5816 5816 5817 5818 5818 5819 5819 5819 5820 5820 5820 5820 5820 5820 5820 5820 5820 5820 5820 5820 5819 5819 5819 5818 5818 5818 5817 5816 5816 5815 5815 5814 5814 5813 5812
5811 5812 5811 5811 5812 5812 5812 5813 5813 5813 5813 5813 5814 5813 5815 5815 5815 5816 5816 5816 5816 5816 5816 5816 5816 5816 5816 5816 5816 5816 5815 5815 5814 5814 5813 5813 5812 5811 5811 5810 5810 5809 5808 5807
5808 5808 5808 5808 5808 5808 5808 5809 5810 5810 5810 5809 5809 5809 5811 5810 5810 5811 5812 5812 5812 5812 5812 5812 5812 5812 5812 5812 5812 5812 5811 5811 5810 5809 5809 5808 5807 5806 5806 5805 5804 5803 5802 5801
5804 5805 5804 5804 5804 5804 5804 5804 5806 5806 5805 5805 5805 5806 5806 5806 5806 5807 5807 5808 5808 5808 5808 5808 5808 5808 5808 5808 5808 5807 5807 5806 5806 5805 5804 5803 5802 5802 5801 5799 5798 5797 5796 5795
5799 5800 5800 5800 5800 5800 5801 5801 5801 5801 5801 5801 5801 5801 5802 5801 5802 5802 5803 5803 5803 5803 5803 5803 5804 5804 5804 5804 5803 5803 5802 5802 5801 5800 5799 5798 5797 5796 5795 5794 5793 5791 5790 5789
5795 5796 5796 5796 5796 5796 5796 5796 5796 5796 5796 5797 5797 5799 5797 5796 5797 5797 5798 5798 5798 5798 5798 5799 5799 5799 5799 5798 5798 5798 5797 5797 5796 5795 5794 5793 5792 5791 5789 5788 5786 5785 5784 5782
5790 5791 5791 5792 5792 5791 5791 5791 5792 5792 5792 5791 5792 5795 5792 5792 5792 5792 5793 5793 5793 5793 5793 5793 5793 5793 5793 5793 5793 5792 5792 5791 5790 5789 5788 5787 5786 5785 5783 5782 5780 5778 5777 5775
5786 5787 5787 5787 5788 5787 5786 5786 5786 5787 5786 5786 5787 5790 5786 5786 5786 5787 5787 5787 5788 5788 5788 5788 5788 5788 5788 5788 5787 5786 5786 5785 5784 5783 5782 5781 5779 5778 5776 5774 5773 5771 5769 5767
5781 5782 5783 5783 5782 5782 5781 5781 5781 5781 5780 5781 5782 5782 5781 5781 5781 5781 5782 5782 5782 5782 5782 5782 5782 5782 5782 5781 5781 5780 5779 5778 5777 5776 5775 5774 5772 5770 5769 5766 5764 5762 5760 5758
5776 5776 5776 5776 5776 5776 5776 5776 5775 5775 5775 5775 5775 5775 5775 5775 5775 5775 5776 5776 5776 5776 5776 5776 5776 5775 5775 5775 5774 5773 5772 5771 5770 5769 5767 5766 5764 5762 5760 5757 5755 5753 5751 5748
5770 5770 5770 5771 5771 5770 5770 5770 5770 5769 5769 5769 5769 5769 5769 5769 5769 5769 5770 5770 5770 5770 5769 5769 5769 5768 5768 5767 5766 5765 5764 5763 5762 5760 5759 5757 5755 5753 5750 5748 5745 5743 5741 5739
5764 5765 5765 5765 5765 5765 5765 5765 5764 5764 5764 5764 5763 5764 5763 5763 5763 5763 5763 5763 5763 5763 5762 5762 5761 5761 5760 5759 5758 5757 5756 5754 5753 5751 5749 5747 5745 5743 5741 5738 5736 5733 5731 5730
5759 5759 5759 5759 5760 5759 5762 5759 5758 5758 5757 5757 5756 5756 5756 5756 5756 5756 5756 5756 5756 5756 5755 5754 5753 5752 5751 5750 5749 5748 5747 5745 5744 5742 5740 5738 5736 5734 5732 5730 5728 5725 5723 5721
5753 5753 5753 5753 5752 5753 5753 5753 5752 5751 5751 5750 5750 5750 5750 5750 5750 5750 5749 5749 5749 5748 5748 5747 5745 5744 5743 5742 5741 5739 5738 5737 5735 5733 5732 5730 5728 5725 5723 5721 5719 5718 5715 5713
5747 5747 5747 5747 5746 5747 5748 5747 5746 5746 5745 5745 5744 5744 5744 5743 5744 5744 5743 5742 5741 5741 5740 5739 5738 5736 5735 5734 5732 5731 5730 5728 5726 5725 5723 5721 5719 5717 5715 5713 5712 5710 5708 5706
5741 5741 5741 5740 5740 5740 5741 5740 5740 5741 5740 5738 5738 5737 5737 5737 5737 5737 5735 5735 5734 5733 5732 5731 5730 5728 5727 5726 5724 5723 5721 5720 5718 5717 5715 5714 5712 5710 5708 5706 5705 5703 5702 5700
5734 5734 5734 5734 5734 5736 5734 5733 5733 5733 5732 5732 5731 5731 5730 5730 5730 5729 5728 5727 5726 5725 5724 5723 5722 5721 5719 5718 5716 5715 5713 5712 5711 5709 5708 5706 5704 5703 5701 5700 5698 5697 5695 5693
5727 5728 5727 5728 5729 5727 5726 5726 5726 5725 5725 5725 5724 5724 5724 5723 5723 5722 5721 5720 5718 5717 5716 5715 5714 5713 5712 5710 5708 5707 5706 5705 5703 5702 5701 5699 5698 5696 5694 5693 5692 5690 5688 5686
5720 5720 5720 5720 5720 5720 5719 5718 5718 5718 5718 5718 5718 5717 5717 5716 5715 5714 5713 5712 5711 5710 5709 5708 5707 5706 5704 5703 5701 5700 5699 5698 5696 5695 5694 5693 5691 5689 5688 5686 5684 5683 5681 5679
5713 5713 5713 5713 5713 5712 5712 5712 5712 5711 5711 5711 5710 5710 5709 5708 5708 5707 5706 5705 5704 5703 5702 5700 5699 5698 5697 5696 5694 5693 5692 5691 5690 5689 5687 5686 5684 5682 5681 5679 5677 5676 5674 5672
5706 5706 5706 5706 5706 5705 5705 5705 5704 5704 5704 5703 5703 5702 5702 5701 5700 5699 5699 5698 5697 5695 5694 5693 5692 5691 5690 5688 5687 5686 5685 5684 5683 5681 5680 5679 5677 5676 5674 5673 5671 5669 5667 5665